Tavèrnoles





Hora UTC 02:40
Temperatura 13.3 ºC
Humedad 59.0 %
Presión 1005.9 hPa
Pluja 0.0 mm
Velocidad viento 0.0 km/h
Dirección viento S
Radiación solar 0.0 W/m²

Datos diarios 2022-05-23



Hora UTC (invierno +1h; verano +2h)
Temperatura (ºC) Humedad (%) Presión (hPa) Velocidad viento (km/h) Precipitación (mm) Radiación solar (W/m²)
Hora UTC Aire Humedad Presión Vel. Dir. Vel. Max Dir. Intent. máx 5 min. Rad. Sol.
00:05 14.7 55.0 1007.6 4.8 S 4.8 0.0 0.0
00:10 14.7 54.0 1007.3 1.6 S 6.4 0.0 0.0
00:15 14.8 55.0 1007.4 0.0 S 9.7 0.0 0.0
00:20 15.0 54.0 1007.7 3.2 S 12.9 0.0 0.0
00:25 15.1 54.0 1007.6 0.0 S 12.9 0.0 0.0
00:30 15.2 55.0 1007.2 1.6 S 4.8 0.0 0.0
00:35 15.3 55.0 1007.3 0.0 S 6.4 0.0 0.0
00:40 15.4 55.0 1007.0 6.4 S 6.4 0.0 0.0
00:45 15.5 55.0 1006.7 0.0 S 6.4 0.0 0.0
00:50 15.6 52.0 1006.5 0.0 S 6.4 0.0 0.0
00:55 15.7 56.0 1007.1 0.0 S 4.8 0.0 0.0
01:00 15.9 51.0 1006.6 6.4 NNE 12.9 0.0 0.0
01:05 16.2 52.0 1006.4 0.0 ENE 12.9 0.0 0.0
01:10 16.3 53.0 1006.5 0.0 E 12.9 0.0 0.0
01:15 16.2 52.0 1006.6 0.0 E 0.0 0.0 0.0
01:20 16.1 53.0 1006.9 0.0 E 0.0 0.0 0.0
01:25 15.9 54.0 1007.1 0.0 SE 4.8 0.0 0.0
01:30 15.6 54.0 1007.0 0.0 S 4.8 0.0 0.0
01:35 15.4 54.0 1006.8 0.0 S 4.8 0.0 0.0
01:40 15.1 56.0 1006.8 0.0 S 0.0 0.0 0.0
01:45 14.8 56.0 1006.8 0.0 S 0.0 0.0 0.0
01:50 14.4 57.0 1006.6 0.0 S 0.0 0.0 0.0
01:55 14.3 58.0 1006.5 0.0 S 1.6 0.0 0.0
02:00 14.1 56.0 1006.6 0.0 S 1.6 0.0 0.0
02:05 14.2 58.0 1006.5 0.0 S 3.2 0.0 0.0
02:10 14.0 58.0 1006.4 0.0 S 3.2 0.0 0.0
02:15 13.6 59.0 1006.3 1.6 S 4.8 0.0 0.0
02:20 13.6 59.0 1006.3 1.6 S 4.8 0.0 0.0
02:25 13.5 59.0 1006.2 0.0 S 4.8 0.0 0.0
02:30 13.4 59.0 1006.0 0.0 S 4.8 0.0 0.0
02:35 13.3 59.0 1005.9 0.0 S 3.2 0.0 0.0
02:40 13.3 59.0 1005.9 0.0 S 3.2 0.0 0.0
Máxima 16.4 59.0 1007.7 6.4 NNE 12.9 0.0 0.0
Mínima 13.3 51.0 1005.9
Total 0.0